CAPE
0 0 0 0 0 0 0 0 0 0 0 0 0 0 0 0 0 0 0 0 0 0 0 0 132 176 838 1088 1200 1242 892 2190 2034 1749 1718 2128 2096 2280 2010 1938 2108 2238 2289 2194 2061 2140 2165 2077 1935 1868 1853 1900 1874 1787 1657 1602 1560 1560 1590 1566 1618 1682 1751 1767 1752 1772 1640 1546 1647 1609 1483 1353 1322 1356 1376 1401 1370 1390 1407 1334 1236 1194 1113 1049 1038 1006
0 0 0 0 0 0 0 0 0 0 0 0 0 0 0 0 0 0 0 0 0 0 0 281 666 667 733 1003 984 1156 1213 1777 1745 1717 1563 1957 2131 1999 1861 2080 2140 2039 2005 1978 1931 1912 2022 2021 1945 1823 1844 1804 1717 1724 1792 1775 1747 1753 1713 1726 1740 1805 1862 1834 1862 1847 1801 1635 1566 1410 1428 1471 1437 1403 1404 1355 1230 1265 1298 1280 1231 1263 1288 1246 1178 1135
0 0 0 0 0 0 0 0 0 0 0 0 0 0 0 0 0 0 0 0 0 0 0 668 966 781 765 943 942 1472 1618 1750 1834 1815 1769 2223 1987 1721 1918 2035 2027 2016 2004 2001 1903 1835 1862 1850 1731 1648 1604 1560 1516 1500 1496 1450 1447 1401 1448 1472 1549 1601 1658 1661 1605 1604 1578 1544 1431 1444 1475 1460 1483 1452 1416 1320 1336 1334 1333 1281 1244 1264 1335 1318 1228 1146
0 0 0 0 0 0 0 0 0 0 0 0 0 0 0 0 0 0 0 0 0 0 366 902 1081 1106 970 1018 939 1415 1628 1750 1892 1854 1963 1902 1681 1829 1929 1966 1970 2008 2018 1977 1853 1818 1803 1744 1628 1558 1476 1453 1467 1446 1403 1418 1313 1184 1106 1243 1392 1459 1423 1425 1469 1421 1382 1386 1319 1296 1362 1379 1369 1379 1403 1352 1250 1176 1209 1302 1316 1346 1347 1334 1275 1174
0 0 0 0 0 0 0 0 0 0 0 0 0 0 0 0 0 0 0 0 507 594 759 702 857 1021 1092 942 1167 1317 1482 1547 1559 1725 1653 1768 1682 1766 1821 1909 1875 1831 1848 1911 1831 1751 1711 1634 1582 1502 1450 1437 1405 1394 1389 1342 1213 1076 1015 971 954 1097 1221 1208 1156 1174 1152 1132 1163 1193 1210 1198 1244 1277 1246 1190 1150 1126 1105 1214 1297 1369 1384 1400 1380 1318
0 0 0 0 0 0 0 0 0 0 0 0 0 0 0 0 0 0 0 0 0 424 306 1 57 679 904 1127 1074 1245 1366 1352 972 1352 1380 1476 1587 1598 1722 1736 1576 1687 1856 1864 1759 1724 1736 1589 1428 1313 1286 1250 1122 1135 1172 1213 1114 1012 980 909 863 840 792 928 944 1057 1035 982 1024 1088 1081 1123 1097 1153 1148 1080 1016 1007 979 1002 1070 1169 1258 1340 1360 1331
0 0 0 0 0 0 0 0 0 0 0 0 0 0 0 0 0 0 0 0 0 0 0 0 0 111 912 909 1068 1138 1218 1194 656 1224 1444 1411 1240 1537 1602 1583 1621 1838 1829 1705 1706 1833 1689 1482 1373 1277 1290 1239 1020 990 1134 1136 1075 882 781 760 747 739 720 740 851 936 947 985 975 922 919 936 1035 1050 1081 985 988 974 955 900 955 900 905 990 1068 1118
0 0 0 0 0 0 0 0 0 0 0 0 0 0 0 0 0 0 0 0 0 0 0 0 45 279 740 902 1012 1000 1098 801 688 1054 1300 1264 1156 1409 1440 1545 1720 1799 1707 1664 1716 1617 1480 1310 1111 1324 1299 1037 925 922 1130 1140 1133 924 759 764 743 597 595 590 717 799 834 920 917 936 923 936 973 996 977 909 922 912 873 880 950 906 844 767 726 762
0 0 0 0 0 0 0 0 0 0 0 0 0 0 0 0 0 0 0 0 0 0 0 0 415 286 378 744 944 821 858 582 849 1024 1252 953 1019 1295 1438 1420 1523 1715 1656 1713 1699 1616 1508 1451 1288 1161 1182 1012 838 916 1189 1044 1042 1010 876 740 580 557 636 731 704 727 813 829 839 822 822 883 903 886 861 829 824 887 930 890 893 874 847 821 776 701
0 0 0 0 0 0 0 0 0 0 0 0 0 0 0 0 0 0 0 0 0 0 0 0 107 0 133 855 598 492 784 349 464 801 1242 1124 1212 1271 1514 1340 1450 1440 1523 1567 1529 1584 1546 1540 1407 1263 1138 869 711 609 856 867 891 1021 911 899 620 592 495 455 527 628 726 748 830 797 794 813 874 814 778 751 760 716 694 711 685 687 663 607 583 626
0 0 0 0 0 0 0 0 0 0 0 0 0 0 0 0 0 0 0 0 0 0 0 0 0 0 58 465 750 500 654 513 667 863 1004 1148 1336 1523 1560 1543 1689 1712 1797 1536 1457 1564 1527 1293 1082 1037 985 768 720 661 691 623 624 814 675 491 576 676 639 559 427 381 440 626 655 756 753 768 770 800 785 737 704 665 654 704 705 591 521 500 558 570
0 0 0 0 0 0 0 0 0 0 0 0 0 0 0 0 0 0 0 0 0 0 0 0 0 0 0 232 573 462 707 791 939 1111 1234 1320 1350 1437 1548 1561 1638 1790 1743 1428 1396 1463 1296 1241 945 1042 937 734 626 659 750 695 588 534 378 409 458 661 692 575 506 460 422 381 369 463 567 556 538 549 649 707 645 561 480 460 423 346 272 416 403 365
0 0 0 0 0 0 0 0 0 0 0 0 0 0 0 0 0 0 0 0 0 0 0 0 0 0 0 271 484 593 779 855 972 1125 1187 1260 1314 1372 1336 1179 1221 1404 1430 1434 1145 1135 1049 949 882 784 728 646 440 277 340 485 577 444 311 368 652 740 728 614 465 495 452 385 382 122 152 262 310 64 36 354 409 373 274 259 272 252 186 118 64 51
0 0 0 0 0 0 0 0 0 0 0 0 0 0 0 0 0 0 0 0 0 0 0 0 0 0 243 63 433 458 742 932 980 1023 937 1030 1236 1245 1190 1201 1143 1222 1251 1220 1105 990 832 828 851 759 707 636 484 355 308 416 422 268 288 471 641 652 542 434 411 418 414 414 367 125 0 0 0 0 0 0 0 0 0 0 0 15 14 8 23 54
0 0 0 0 0 0 0 0 0 0 0 0 0 0 0 0 0 0 0 0 0 0 0 0 0 0 0 0 419 656 702 906 943 949 894 974 1014 1035 1120 1122 1126 1069 979 813 798 884 904 826 790 788 780 680 573 397 292 178 115 106 334 486 467 385 351 352 354 358 384 325 0 0 0 0 0 0 0 0 0 0 0 0 0 0 1 2 4 12
0 0 0 0 0 0 0 0 0 0 0 0 0 0 0 0 0 0 0 0 0 0 0 0 0 1 0 0 320 692 645 776 888 903 915 1007 1090 1143 1071 1128 1019 905 861 793 682 557 475 456 534 631 624 530 438 246 103 250 233 259 309 303 280 306 321 307 284 118 0 0 0 0 0 0 0 0 0 0 0 0 0 0 0 0 0 0 2 2
0 0 0 0 0 0 0 0 0 0 0 0 0 0 0 0 0 0 0 0 0 0 0 1 3 6 6 20 302 633 712 710 793 881 903 1022 1089 1193 1044 1017 985 916 796 705 650 588 494 397 334 334 287 0 7 83 227 253 228 246 252 0 0 196 195 25 0 0 0 0 0 0 0 0 0 0 0 0 0 0 0 0 0 0 0 0 1 3
0 0 0 0 0 0 0 0 0 0 0 0 0 0 0 0 0 0 0 0 0 0 73 3 0 0 0 1 130 409 710 635 769 880 869 929 1006 1093 1105 984 905 755 662 583 524 450 429 449 399 142 16 0 19 0 230 45 1 38 0 0 0 0 0 0 0 0 0 0 0 0 0 0 0 0 0 0 0 0 0 0 0 0 0 0 0 0
0 0 0 0 0 0 0 0 0 0 0 0 0 0 0 0 0 0 0 0 0 0 4 1 6 3 0 0 4 241 382 632 582 535 606 672 632 653 725 782 659 600 535 498 510 473 382 236 50 57 39 32 20 1 1 1 1 1 0 0 0 0 0 0 0 0 0 0 0 0 0 0 0 0 0 0 0 0 0 0 0 0 0 0 0 0
0 0 0 0 0 0 0 0 0 0 0 0 0 0 0 0 0 0 0 0 0 0 0 4 5 1 0 0 0 236 293 401 476 472 572 647 616 683 711 651 533 490 480 400 326 262 217 195 196 245 241 116 1 11 2 2 2 0 0 0 0 0 0 0 0 0 0 0 0 0 0 0 0 0 0 0 0 0 0 0 0 0 0 0 0 0
0 0 0 0 0 0 0 0 0 0 0 0 0 0 0 0 0 0 0 0 0 0 0 4 0 0 1 0 0 126 176 272 418 510 553 543 539 552 582 515 462 434 399 376 314 269 254 243 193 238 218 44 1 3 2 2 1 1 0 0 0 0 0 0 0 0 0 0 0 0 0 0 0 0 0 0 0 0 2 6 6 4 2 0 0 0
0 0 0 0 0 0 0 0 0 0 0 0 0 0 0 0 0 0 0 0 0 0 0 0 0 0 0 0 0 92 132 191 321 431 522 588 606 583 562 507 455 403 382 336 302 311 306 150 183 227 126 1 3 0 0 1 2 1 0 0 0 0 0 0 0 0 0 0 0 0 0 0 0 0 0 0 0 1 4 8 9 6 3 1 0 1
0 0 0 0 0 0 0 0 0 0 0 0 0 0 0 0 0 0 0 0 0 0 0 0 0 0 0 0 88 109 144 220 403 482 459 450 484 514 470 414 394 360 346 332 346 368 387 410 280 140 44 1 0 0 0 0 0 0 0 0 0 0 0 0 0 0 0 0 0 0 0 0 0 0 0 0 0 2 4 6 6 9 5 1 0 0
14 0 0 0 0 0 0 0 0 0 0 0 0 0 0 0 0 0 0 0 0 0 0 0 0 0 12 0 0 28 109 76 126 281 434 436 364 316 367 280 280 328 351 352 339 361 452 444 201 148 62 3 0 0 0 0 0 0 0 0 0 0 0 0 0 0 0 0 0 0 0 0 0 0 0 0 0 2 2 2 2 4 5 1 0 0
0 0 0 0 0 0 0 0 0 0 0 0 0 0 0 0 0 0 0 0 0 0 0 0 0 0 11 81 0 87 133 161 182 228 278 325 266 82 132 216 128 138 238 374 406 447 478 338 184 171 114 25 0 0 0 0 0 0 0 0 0 0 0 0 0 0 0 0 0 0 0 0 0 0 0 0 0 0 0 0 0 0 0 3 0 0
0 0 0 0 0 0 0 0 0 0 0 0 0 0 0 0 0 0 0 0 0 0 0 0 0 0 137 111 68 153 176 207 205 277 329 341 334 329 360 381 390 382 388 407 435 307 308 284 279 318 181 44 0 0 0 0 0 0 0 0 0 0 0 0 0 0 0 0 0 0 0 0 0 0 0 0 0 0 0 0 0 0 0 2 0 0
0 0 0 0 0 0 0 0 0 0 0 0 0 0 0 0 0 0 0 0 0 0 0 0 0 111 91 108 98 190 267 249 180 264 294 246 245 268 211 263 335 360 377 390 364 255 255 267 330 339 192 27 0 0 0 0 0 0 0 0 0 0 0 0 0 0 0 0 0 0 0 0 0 0 0 0 0 0 0 0 0 0 0 0 0 0
0 0 0 0 22 13 0 0 96 0 0 0 0 0 0 0 0 0 0 0 0 0 0 0 0 2 0 157 127 177 250 313 247 192 179 162 143 108 129 127 245 308 283 277 378 335 390 328 259 207 83 15 15 6 0 0 0 0 0 0 0 0 0 0 0 0 0 0 0 0 0 0 0 0 0 0 0 0 0 0 0 0 0 0 0 0
0 0 0 3 153 96 78 66 196 85 76 0 0 0 0 0 0 0 0 0 0 0 0 0 1 5 0 81 151 152 231 258 242 165 146 127 131 78 56 64 67 192 246 278 277 176 144 152 147 86 38 33 22 15 13 4 1 0 0 0 0 0 0 0 0 0 0 0 0 0 0 0 0 0 0 0 0 0 0 0 0 0 0 0 0 0
0 2 0 30 139 105 93 151 115 40 12 0 0 0 0 0 0 0 0 0 0 0 0 0 0 2 0 171 134 109 253 301 203 135 104 82 67 80 175 102 136 141 110 105 90 62 36 34 57 54 44 28 32 32 24 12 3 2 6 14 18 18 14 4 0 0 0 0 0 0 0 0 0 0 0 0 0 0 0 0 0 0 0 0 0 0
2 17 86 107 38 66 170 162 117 64 0 0 0 0 0 0 0 0 0 0 0 0 0 0 0 0 41 132 132 105 111 222 112 79 112 121 58 60 140 137 107 82 96 67 38 26 53 95 77 50 30 28 38 35 20 5 15 27 30 29 26 24 13 0 0 0 0 0 0 0 0 0 0 0 0 0 0 0 0 0 0 0 0 0 0 0
7 115 124 137 68 129 77 77 3 51 0 0 0 0 0 0 0 0 0 0 0 0 0 0 0 0 15 102 185 176 146 125 121 104 115 129 202 177 61 67 35 28 34 37 50 58 74 72 48 34 17 13 18 25 14 23 28 26 22 22 17 11 3 2 1 2 0 0 0 0 0 0 0 0 0 0 0 0 0 0 0 0 0 0 0 0
77 150 129 32 117 182 21 14 6 85 58 9 1 0 6 0 0 0 0 0 0 1 0 0 0 0 0 120 157 174 201 190 161 118 138 201 218 105 44 45 4 40 36 44 48 43 32 16 13 6 5 0 0 0 8 8 15 16 13 12 4 1 1 0 0 0 0 0 0 0 0 0 0 0 0 0 0 0 0 0 0 0 0 0 0 0
88 116 131 19 119 235 152 78 27 43 23 5 108 136 0 0 0 0 0 0 0 0 0 0 0 0 0 67 142 182 152 197 216 173 178 196 152 82 102 17 15 32 7 39 33 43 62 43 8 0 0 0 17 15 5 0 18 6 0 0 0 0 0 0 0 0 0 0 0 0 0 0 0 0 0 0 0 0 0 0 0 0 0 0 0 0
1 21 27 33 224 201 246 135 53 43 33 39 237 306 83 0 0 0 0 0 0 0 0 0 0 0 0 72 140 138 148 134 158 246 214 128 111 100 61 37 25 53 22 45 48 54 33 8 2 0 0 5 9 6 2 7 0 0 0 0 0 0 0 0 0 0 0 0 0 0 0 0 0 0 0 0 0 0 0 0 0 0 0 0 0 0
65 130 241 219 226 226 134 121 24 4 0 235 268 0 238 170 115 0 0 0 0 0 0 0 0 0 0 37 101 122 140 168 196 267 195 75 96 172 129 60 2 0 42 19 5 8 6 2 0 0 0 0 0 0 0 0 0 0 0 0 0 0 0 0 0 0 0 0 0 0 0 0 0 0 0 0 0 0 0 0 0 0 0 0 0 0
188 214 152 168 185 210 182 124 12 133 32 33 330 35 73 20 1 0 26 0 0 0 0 0 0 0 0 18 84 117 140 184 184 203 122 165 132 49 69 79 62 27 21 4 2 2 1 0 0 0 0 0 0 0 0 0 0 0 0 0 0 0 0 0 0 0 0 0 0 0 0 0 0 0 0 0 0 0 0 0 0 0 0 0 0 0
186 247 161 261 161 234 188 110 36 63 60 41 54 274 29 23 2 9 1 10 0 0 0 0 0 1 2 1 63 118 136 175 54 128 191 136 67 156 63 126 115 66 21 2 0 0 3 3 2 0 0 0 0 0 0 0 0 0 0 0 0 0 0 0 0 0 0 0 0 0 0 0 0 0 0 0 0 0 0 0 0 0 0 0 0 0
156 35 96 117 129 85 147 53 17 0 0 0 213 118 96 40 9 34 1 0 0 0 0 0 28 1 4 4 117 89 133 198 230 200 157 159 115 15 78 127 109 69 12 0 1 4 6 6 4 0 0 0 0 0 0 0 0 0 0 0 0 0 0 0 0 0 0 0 0 0 0 0 0 0 0 0 0 0 0 0 0 0 0 0 0 0
44 5 3 0 15 84 164 34 73 0 24 2 156 223 155 0 1 12 29 11 0 0 0 0 92 62 6 8 62 4 125 188 236 202 118 167 93 37 116 105 70 20 0 1 2 4 5 5 4 0 0 0 0 0 0 0 0 0 0 0 0 0 0 0 0 0 0 0 0 0 0 0 0 0 0 0 0 0 0 0 0 0 0 0 0 0
37 0 0 4 0 0 0 19 0 0 0 0 126 225 21 0 0 32 6 0 0 0 0 0 48 79 4 6 6 125 56 146 84 0 0 5 71 49 100 73 40 8 5 1 0 0 3 2 1 0 0 0 0 0 0 0 0 0 0 0 0 0 0 0 0 0 0 0 0 0 0 0 0 0 0 0 0 0 0 0 0 0 0 0 0 0
2 0 1 0 0 0 86 0 0 0 0 0 0 0 0 0 6 0 0 0 0 0 0 0 1 2 4 5 2 0 0 0 0 0 0 0 11 16 82 56 29 12 5 1 1 1 1 0 0 0 0 0 0 0 0 0 0 0 0 0 0 0 0 0 0 0 0 0 0 0 0 0 0 0 0 0 0 0 0 0 0 0 0 0 0 0
14 0 2 0 3 0 0 6 22 10 0 0 0 0 0 0 0 0 0 0 0 0 0 0 0 0 0 0 0 0 0 0 0 0 0 0 0 19 85 45 24 24 4 0 0 0 0 0 0 0 0 0 0 0 0 0 0 0 0 0 0 0 0 0 0 0 0 0 0 0 0 0 0 0 0 0 0 0 0 0 0 0 0 0 0 0
6 0 0 0 0 81 15 2 0 0 0 0 0 0 0 0 0 0 0 0 0 0 0 0 0 0 0 0 0 0 0 0 0 0 0 1 21 69 48 3 3 5 1 2 1 0 0 0 0 0 0 0 0 0 0 0 0 0 0 0 0 0 0 0 0 0 0 0 0 0 0 0 0 0 0 0 0 0 0 0 0 0 0 0 0 0
0 0 0 33 0 0 0 0 0 0 0 0 0 0 0 0 0 0 0 0 0 0 0 0 0 0 0 0 0 0 0 0 0 0 0 6 37 68 53 12 7 13 4 4 0 0 1 0 0 0 0 0 0 0 0 0 0 0 0 0 0 0 0 0 0 0 0 0 0 0 0 0 0 0 0 0 0 0 0 0 0 0 0 0 0 0
5 0 0 0 0 0 0 0 0 0 0 0 0 0 0 0 0 0 0 0 0 0 0 0 0 0 0 0 0 0 0 0 0 0 0 5 41 59 24 4 2 3 0 0 1 1 0 0 0 0 0 0 0 0 0 0 0 0 0 0 0 0 0 0 0 0 0 0 0 0 0 0 0 0 0 0 0 0 0 0 0 0 0 0 0 0
0 0 0 0 0 0 0 0 0 0 0 0 0 0 0 0 0 0 0 0 0 0 0 0 0 0 0 0 0 0 0 0 0 0 2 18 26 14 6 1 2 2 0 3 2 0 0 0 0 0 0 0 0 0 0 0 0 0 0 0 0 0 0 0 0 0 0 0 0 0 0 0 0 0 0 0 0 0 0 0 0 0 0 0 0 0
0 0 0 0 0 0 0 0 0 0 0 0 0 0 0 0 0 0 0 0 0 0 0 0 0 0 0 0 0 0 0 0 0 0 5 32 45 12 0 0 1 0 3 3 0 0 0 0 0 0 0 0 0 0 0 0 0 0 0 0 0 0 0 0 0 0 0 0 0 0 0 0 0 0 0 0 0 0 0 0 0 0 0 0 0 0
0 0 0 0 0 0 0 0 0 0 0 0 0 0 0 0 0 0 0 0 0 0 0 0 0 0 0 0 0 0 1 2 2 1 4 15 33 27 13 2 1 4 3 2 0 0 0 0 0 0 0 0 0 0 0 0 0 0 0 0 0 0 0 0 0 0 0 0 0 0 0 0 0 0 0 0 0 0 0 0 0 0 0 0 0 0
0 0 0 0 0 0 0 0 0 0 0 0 0 0 0 0 0 0 0 0 0 0 0 0 0 0 0 0 0 0 3 2 0 1 1 14 33 30 5 1 3 4 4 0 0 0 0 0 0 0 0 0 0 0 0 0 0 0 0 0 0 0 0 0 0 0 0 0 0 0 0 0 0 0 0 0 0 0 0 0 0 0 0 0 0 0
0 0 0 0 0 0 0 0 0 0 0 0 0 0 0 0 0 0 0 0 0 0 0 0 0 0 0 0 1 2 3 0 0 0 10 22 28 2 0 3 6 4 1 0 0 0 0 0 0 0 0 0 0 0 0 0 0 0 0 0 0 0 0 0 0 0 0 0 0 0 0 0 0 0 0 0 0 0 0 0 0 0 0 0 0 0
Wind_Speed
nan nan nan nan nan nan nan nan nan nan nan nan nan nan nan nan nan nan nan nan nan nan nan nan 32 32 29 27 33 33 26 25 27 29 26 26 27 31 28 23 23 23 22 21 25 26 26 26 26 26 26 26 26 24 23 21 19 18 18 18 16 13 13 15 17 17 17 16 15 15 14 12 12 13 14 15 15 16 16 17 17 16 16 17 18 17
nan nan nan nan nan nan nan nan nan nan nan nan nan nan nan nan nan nan nan nan nan nan nan 32 38 36 33 33 32 32 31 25 23 24 23 27 30 30 27 22 21 19 19 23 24 26 26 26 28 27 26 27 28 24 23 21 21 21 21 21 20 19 18 18 17 17 18 17 17 17 14 14 14 14 15 13 16 16 16 16 15 15 16 17 18 18
nan nan nan nan nan nan nan nan nan nan nan nan nan nan nan nan nan nan nan nan nan nan nan 31 38 36 37 34 30 29 27 27 27 25 26 31 32 28 24 22 21 23 24 23 23 25 26 28 29 29 28 28 28 27 25 23 25 25 24 22 22 22 21 20 19 19 18 17 17 17 15 16 14 15 15 16 16 18 18 17 16 16 16 17 17 18
nan nan nan nan nan nan nan nan nan nan nan nan nan nan nan nan nan nan nan nan nan nan 27 32 38 38 37 37 36 31 29 29 31 32 31 30 30 28 22 21 25 27 25 20 23 25 26 28 30 30 28 27 29 28 26 25 25 24 24 23 24 23 22 20 19 19 19 19 20 19 18 17 17 16 15 16 17 17 18 17 17 17 17 17 17 18
nan nan nan nan nan nan nan nan nan nan nan nan nan nan nan nan nan nan nan nan 34 39 33 37 39 36 34 35 34 33 34 33 34 38 36 32 31 27 24 25 28 25 19 19 23 24 25 29 29 30 28 28 29 28 27 26 24 23 24 23 24 24 22 21 21 21 21 23 23 21 21 21 20 18 19 20 18 17 17 18 19 17 18 18 18 18
nan nan nan nan nan nan nan nan nan nan nan nan nan nan nan nan nan nan nan nan nan 34 33 nan nan 35 31 30 32 32 31 30 32 32 29 28 30 25 24 28 26 19 16 19 21 22 24 28 29 30 31 30 28 29 28 27 26 26 26 26 26 25 24 23 22 22 24 25 25 26 26 24 21 21 21 19 17 16 18 18 17 19 20 20 19 19
nan nan nan nan nan nan nan nan nan nan nan nan nan nan nan nan nan nan nan nan nan nan nan nan nan 32 34 27 30 31 31 30 29 23 28 30 27 25 25 28 23 20 20 22 22 22 25 26 30 30 29 28 29 29 26 27 29 30 29 28 27 25 25 24 24 24 25 26 26 27 27 25 24 23 21 19 19 19 18 19 21 20 20 21 20 20
nan nan nan nan nan nan nan nan nan nan nan nan nan nan nan nan nan nan nan nan nan nan nan nan nan 34 32 28 32 33 30 28 27 26 31 32 31 28 28 27 24 18 18 22 23 24 25 25 28 29 25 26 28 27 27 28 30 32 30 30 27 25 26 24 24 27 26 27 25 27 27 26 25 24 22 20 20 19 20 21 21 20 20 20 21 20
nan nan nan nan nan nan nan nan nan nan nan nan nan nan nan nan nan nan nan nan nan nan nan nan 39 39 32 32 36 34 32 29 31 28 31 29 25 27 27 29 26 21 19 22 23 22 24 25 26 26 26 25 26 27 27 27 29 30 27 31 28 27 26 25 27 28 27 28 27 27 27 27 25 23 23 21 21 21 20 21 21 21 20 20 20 20
nan nan nan nan nan nan nan nan nan nan nan nan nan nan nan nan nan nan nan nan nan nan nan nan 35 nan 36 36 32 34 32 31 32 28 27 26 28 28 29 29 27 24 22 23 24 20 22 24 25 25 26 27 25 26 26 25 29 29 27 32 32 29 26 26 29 29 30 29 28 29 28 28 26 25 24 23 24 23 21 21 21 21 21 20 20 20
nan nan nan nan nan nan nan nan nan nan nan nan nan nan nan nan nan nan nan nan nan nan nan nan nan nan nan 31 29 31 26 26 27 23 21 21 25 27 28 31 28 25 24 25 27 24 24 24 26 25 28 30 27 27 27 27 28 27 31 33 33 29 28 29 30 29 30 30 29 28 29 29 28 27 26 26 26 23 23 22 21 21 21 21 21 20
nan nan nan nan nan nan nan nan nan nan nan nan nan nan nan nan nan nan nan nan nan nan nan nan nan nan nan 33 29 35 31 26 27 24 23 23 26 25 24 27 28 26 27 26 29 27 26 28 28 26 28 29 29 31 29 28 30 31 32 32 34 31 30 30 30 31 30 30 30 30 30 30 28 28 28 28 26 24 24 23 22 21 21 22 21 21
nan nan nan nan nan nan nan nan nan nan nan nan nan nan nan nan nan nan nan nan nan nan nan nan nan nan nan 37 36 34 28 27 29 25 25 26 27 26 25 25 25 26 28 27 29 29 26 28 29 29 27 27 32 33 30 31 31 32 34 35 36 32 29 31 30 32 32 32 31 31 31 30 28 nan nan 28 27 25 25 23 23 23 23 22 nan nan
nan nan nan nan nan nan nan nan nan nan nan nan nan nan nan nan nan nan nan nan nan nan nan nan nan nan 43 nan 40 35 31 30 31 32 32 30 28 26 25 24 25 26 28 29 30 31 30 29 28 28 29 31 35 33 31 31 32 32 33 34 36 32 30 30 32 32 33 32 31 31 nan nan nan nan nan nan nan nan nan nan nan nan nan nan nan nan
nan nan nan nan nan nan nan nan nan nan nan nan nan nan nan nan nan nan nan nan nan nan nan nan nan nan nan nan 41 37 37 35 33 32 31 31 29 28 27 26 28 30 31 32 33 33 33 29 28 31 31 32 34 32 31 31 33 34 34 35 36 34 31 32 31 31 32 31 nan nan nan nan nan nan nan nan nan nan nan nan nan nan nan nan nan nan
nan nan nan nan nan nan nan nan nan nan nan nan nan nan nan nan nan nan nan nan nan nan nan nan nan nan nan nan 41 40 40 37 36 34 32 32 31 31 31 30 31 33 34 34 35 33 31 30 30 30 33 35 34 32 32 33 34 36 35 36 36 34 32 32 32 31 nan nan nan nan nan nan nan nan nan nan nan nan nan nan nan nan nan nan nan nan
nan nan nan nan nan nan nan nan nan nan nan nan nan nan nan nan nan nan nan nan nan nan nan nan nan nan nan nan 41 41 41 36 35 33 32 33 33 33 34 32 34 35 35 37 36 34 33 31 30 30 32 nan nan nan 35 35 34 36 37 nan nan 35 33 nan nan nan nan nan nan nan nan nan nan nan nan nan nan nan nan nan nan nan nan nan nan nan
nan nan nan nan nan nan nan nan nan nan nan nan nan nan nan nan nan nan nan nan nan nan nan nan nan nan nan nan 37 40 40 35 33 31 31 34 34 34 34 34 36 37 37 38 37 35 34 32 32 33 nan nan nan nan 36 nan nan nan nan nan nan nan nan nan nan nan nan nan nan nan nan nan nan nan nan nan nan nan nan nan nan nan nan nan nan nan
nan nan nan nan nan nan nan nan nan nan nan nan nan nan nan nan nan nan nan nan nan nan nan nan nan nan nan nan nan 36 36 33 33 33 33 34 35 36 36 37 38 37 38 38 38 38 36 34 nan nan nan nan nan nan nan nan nan nan nan nan nan nan nan nan nan nan nan nan nan nan nan nan nan nan nan nan nan nan nan nan nan nan nan nan nan nan
nan nan nan nan nan nan nan nan nan nan nan nan nan nan nan nan nan nan nan nan nan nan nan nan nan nan nan nan nan 34 34 33 35 34 34 37 38 37 36 36 37 37 36 36 37 38 38 36 33 35 34 34 nan nan nan nan nan nan nan nan nan nan nan nan nan nan nan nan nan nan nan nan nan nan nan nan nan nan nan nan nan nan nan nan nan nan
nan nan nan nan nan nan nan nan nan nan nan nan nan nan nan nan nan nan nan nan nan nan nan nan nan nan nan nan nan 34 33 32 33 35 38 39 39 37 36 36 36 37 36 35 37 38 38 39 38 37 36 nan nan nan nan nan nan nan nan nan nan nan nan nan nan nan nan nan nan nan nan nan nan nan nan nan nan nan nan nan nan nan nan nan nan nan
nan nan nan nan nan nan nan nan nan nan nan nan nan nan nan nan nan nan nan nan nan nan nan nan nan nan nan nan nan nan 39 38 38 40 41 41 39 37 37 37 37 39 38 39 39 39 39 40 40 39 37 nan nan nan nan nan nan nan nan nan nan nan nan nan nan nan nan nan nan nan nan nan nan nan nan nan nan nan nan nan nan nan nan nan nan nan
nan nan nan nan nan nan nan nan nan nan nan nan nan nan nan nan nan nan nan nan nan nan nan nan nan nan nan nan nan 45 45 44 45 45 43 40 39 39 40 40 40 41 42 42 41 40 40 39 38 38 nan nan nan nan nan nan nan nan nan nan nan nan nan nan nan nan nan nan nan nan nan nan nan nan nan nan nan nan nan nan nan nan nan nan nan nan
nan nan nan nan nan nan nan nan nan nan nan nan nan nan nan nan nan nan nan nan nan nan nan nan nan nan nan nan nan nan 48 nan 47 47 46 41 40 41 43 44 44 45 44 45 43 42 41 41 40 39 nan nan nan nan nan nan nan nan nan nan nan nan nan nan nan nan nan nan nan nan nan nan nan nan nan nan nan nan nan nan nan nan nan nan nan nan
nan nan nan nan nan nan nan nan nan nan nan nan nan nan nan nan nan nan nan nan nan nan nan nan nan nan nan nan nan nan 51 49 47 45 46 43 41 nan 45 45 45 45 46 46 46 44 43 44 44 42 40 nan nan nan nan nan nan nan nan nan nan nan nan nan nan nan nan nan nan nan nan nan nan nan nan nan nan nan nan nan nan nan nan nan nan nan
nan nan nan nan nan nan nan nan nan nan nan nan nan nan nan nan nan nan nan nan nan nan nan nan nan nan 52 53 nan 52 50 48 45 43 42 44 44 45 46 46 46 45 45 46 46 47 48 47 46 47 45 nan nan nan nan nan nan nan nan nan nan nan nan nan nan nan nan nan nan nan nan nan nan nan nan nan nan nan nan nan nan nan nan nan nan nan
nan nan nan nan nan nan nan nan nan nan nan nan nan nan nan nan nan nan nan nan nan nan nan nan nan 53 nan 52 nan 48 46 44 42 41 41 43 45 45 45 46 46 46 46 48 49 50 52 52 50 47 46 nan nan nan nan nan nan nan nan nan nan nan nan nan nan nan nan nan nan nan nan nan nan nan nan nan nan nan nan nan nan nan nan nan nan nan
nan nan nan nan nan nan nan nan nan nan nan nan nan nan nan nan nan nan nan nan nan nan nan nan nan nan nan 50 49 47 45 42 39 41 43 44 47 47 47 48 49 49 47 48 50 53 53 50 47 45 nan nan nan nan nan nan nan nan nan nan nan nan nan nan nan nan nan nan nan nan nan nan nan nan nan nan nan nan nan nan nan nan nan nan nan nan
nan nan nan nan 44 nan nan nan 43 nan nan nan nan nan nan nan nan nan nan nan nan nan nan nan nan nan nan nan 42 42 43 43 41 42 45 48 51 nan nan nan nan 49 49 48 50 50 51 51 48 nan nan nan nan nan nan nan nan nan nan nan nan nan nan nan nan nan nan nan nan nan nan nan nan nan nan nan nan nan nan nan nan nan nan nan nan nan
nan nan nan nan 43 48 nan 48 47 nan nan nan nan nan nan nan nan nan nan nan nan nan nan nan nan nan nan 43 42 42 43 46 46 47 48 nan nan nan 50 50 49 48 48 48 nan nan nan nan nan nan nan nan nan nan nan nan nan nan nan nan nan nan nan nan nan nan nan nan nan nan nan nan nan nan nan nan nan nan nan nan nan nan nan nan nan nan
nan nan nan 45 nan nan 46 45 50 nan nan nan nan nan nan nan nan nan nan nan nan nan nan nan nan nan nan 49 48 45 44 45 47 nan 48 48 nan nan 49 48 47 nan nan nan nan nan nan nan nan nan nan nan nan nan nan nan nan nan nan nan nan nan nan nan nan nan nan nan nan nan nan nan nan nan nan nan nan nan nan nan nan nan nan nan nan nan
nan 40 45 45 nan 47 nan nan nan nan nan nan nan nan nan nan nan nan nan nan nan nan nan nan nan nan nan 48 48 46 43 44 45 45 45 43 44 45 nan nan nan nan nan nan nan nan nan nan nan nan nan nan nan nan nan nan nan nan nan nan nan nan nan nan nan nan nan nan nan nan nan nan nan nan nan nan nan nan nan nan nan nan nan nan nan nan
nan 40 40 nan 48 44 nan nan nan nan nan nan nan nan nan nan nan nan nan nan nan nan nan nan nan nan nan 45 46 41 41 41 43 42 42 42 41 41 nan nan nan nan nan nan nan nan nan nan nan nan nan nan nan nan nan nan nan nan nan nan nan nan nan nan nan nan nan nan nan nan nan nan nan nan nan nan nan nan nan nan nan nan nan nan nan nan
nan 37 35 nan 42 40 42 nan nan nan nan nan 44 44 nan nan nan nan nan nan nan nan nan nan nan nan nan nan 42 40 40 39 41 41 42 43 41 nan 39 nan nan nan nan nan nan nan nan nan nan nan nan nan nan nan nan nan nan nan nan nan nan nan nan nan nan nan nan nan nan nan nan nan nan nan nan nan nan nan nan nan nan nan nan nan nan nan
nan nan nan nan 40 36 38 42 nan nan nan nan 44 44 nan nan nan nan nan nan nan nan nan nan nan nan nan nan 43 43 45 46 44 45 41 40 42 nan nan nan nan nan nan nan nan nan nan nan nan nan nan nan nan nan nan nan nan nan nan nan nan nan nan nan nan nan nan nan nan nan nan nan nan nan nan nan nan nan nan nan nan nan nan nan nan nan
nan 43 36 38 35 39 39 38 nan nan nan 38 42 nan 43 45 43 nan nan nan nan nan nan nan nan nan nan nan 47 47 48 49 50 45 42 nan nan 42 41 nan nan nan nan nan nan nan nan nan nan nan nan nan nan nan nan nan nan nan nan nan nan nan nan nan nan nan nan nan nan nan nan nan nan nan nan nan nan nan nan nan nan nan nan nan nan nan
40 41 40 39 35 35 36 39 nan 36 nan nan 35 nan nan nan nan nan nan nan nan nan nan nan nan nan nan nan nan 50 50 51 48 42 39 41 42 nan nan nan nan nan nan nan nan nan nan nan nan nan nan nan nan nan nan nan nan nan nan nan nan nan nan nan nan nan nan nan nan nan nan nan nan nan nan nan nan nan nan nan nan nan nan nan nan nan
44 38 35 39 34 35 36 40 nan nan nan nan nan 30 nan nan nan nan nan nan nan nan nan nan nan nan nan nan nan 51 51 52 nan 37 35 40 nan 44 nan 39 36 nan nan nan nan nan nan nan nan nan nan nan nan nan nan nan nan nan nan nan nan nan nan nan nan nan nan nan nan nan nan nan nan nan nan nan nan nan nan nan nan nan nan nan nan nan
48 nan nan 37 35 nan 37 nan nan nan nan nan 23 27 nan nan nan nan nan nan nan nan nan nan nan nan nan nan 49 nan 47 42 36 36 36 42 44 nan nan 41 37 nan nan nan nan nan nan nan nan nan nan nan nan nan nan nan nan nan nan nan nan nan nan nan nan nan nan nan nan nan nan nan nan nan nan nan nan nan nan nan nan nan nan nan nan nan
nan nan nan nan nan nan 38 nan nan nan nan nan 29 34 34 nan nan nan nan nan nan nan nan nan nan nan nan nan nan nan 40 38 35 36 40 43 nan nan 44 41 nan nan nan nan nan nan nan nan nan nan nan nan nan nan nan nan nan nan nan nan nan nan nan nan nan nan nan nan nan nan nan nan nan nan nan nan nan nan nan nan nan nan nan nan nan nan
nan nan nan nan nan nan nan nan nan nan nan nan 32 34 nan nan nan nan nan nan nan nan nan nan nan nan nan nan nan 36 nan 40 nan nan nan nan nan nan 41 nan nan nan nan nan nan nan nan nan nan nan nan nan nan nan nan nan nan nan nan nan nan nan nan nan nan nan nan nan nan nan nan nan nan nan nan nan nan nan nan nan nan nan nan nan nan nan
nan nan nan nan nan nan nan nan nan nan nan nan nan nan nan nan nan nan nan nan nan nan nan nan nan nan nan nan nan nan nan nan nan nan nan nan nan nan nan nan nan nan nan nan nan nan nan nan nan nan nan nan nan nan nan nan nan nan nan nan nan nan nan nan nan nan nan nan nan nan nan nan nan nan nan nan nan nan nan nan nan nan nan nan nan nan
nan nan nan nan nan nan nan nan nan nan nan nan nan nan nan nan nan nan nan nan nan nan nan nan nan nan nan nan nan nan nan nan nan nan nan nan nan nan nan nan nan nan nan nan nan nan nan nan nan nan nan nan nan nan nan nan nan nan nan nan nan nan nan nan nan nan nan nan nan nan nan nan nan nan nan nan nan nan nan nan nan nan nan nan nan nan
nan nan nan nan nan nan nan nan nan nan nan nan nan nan nan nan nan nan nan nan nan nan nan nan nan nan nan nan nan nan nan nan nan nan nan nan nan nan nan nan nan nan nan nan nan nan nan nan nan nan nan nan nan nan nan nan nan nan nan nan nan nan nan nan nan nan nan nan nan nan nan nan nan nan nan nan nan nan nan nan nan nan nan nan nan nan
nan nan nan nan nan nan nan nan nan nan nan nan nan nan nan nan nan nan nan nan nan nan nan nan nan nan nan nan nan nan nan nan nan nan nan nan nan nan nan nan nan nan nan nan nan nan nan nan nan nan nan nan nan nan nan nan nan nan nan nan nan nan nan nan nan nan nan nan nan nan nan nan nan nan nan nan nan nan nan nan nan nan nan nan nan nan
nan nan nan nan nan nan nan nan nan nan nan nan nan nan nan nan nan nan nan nan nan nan nan nan nan nan nan nan nan nan nan nan nan nan nan nan nan nan nan nan nan nan nan nan nan nan nan nan nan nan nan nan nan nan nan nan nan nan nan nan nan nan nan nan nan nan nan nan nan nan nan nan nan nan nan nan nan nan nan nan nan nan nan nan nan nan
nan nan nan nan nan nan nan nan nan nan nan nan nan nan nan nan nan nan nan nan nan nan nan nan nan nan nan nan nan nan nan nan nan nan nan nan nan nan nan nan nan nan nan nan nan nan nan nan nan nan nan nan nan nan nan nan nan nan nan nan nan nan nan nan nan nan nan nan nan nan nan nan nan nan nan nan nan nan nan nan nan nan nan nan nan nan
nan nan nan nan nan nan nan nan nan nan nan nan nan nan nan nan nan nan nan nan nan nan nan nan nan nan nan nan nan nan nan nan nan nan nan nan nan nan nan nan nan nan nan nan nan nan nan nan nan nan nan nan nan nan nan nan nan nan nan nan nan nan nan nan nan nan nan nan nan nan nan nan nan nan nan nan nan nan nan nan nan nan nan nan nan nan
nan nan nan nan nan nan nan nan nan nan nan nan nan nan nan nan nan nan nan nan nan nan nan nan nan nan nan nan nan nan nan nan nan nan nan nan nan nan nan nan nan nan nan nan nan nan nan nan nan nan nan nan nan nan nan nan nan nan nan nan nan nan nan nan nan nan nan nan nan nan nan nan nan nan nan nan nan nan nan nan nan nan nan nan nan nan
nan nan nan nan nan nan nan nan nan nan nan nan nan nan nan nan nan nan nan nan nan nan nan nan nan nan nan nan nan nan nan nan nan nan nan nan nan nan nan nan nan nan nan nan nan nan nan nan nan nan nan nan nan nan nan nan nan nan nan nan nan nan nan nan nan nan nan nan nan nan nan nan nan nan nan nan nan nan nan nan nan nan nan nan nan nan
nan nan nan nan nan nan nan nan nan nan nan nan nan nan nan nan nan nan nan nan nan nan nan nan nan nan nan nan nan nan nan nan nan nan nan nan nan nan nan nan nan nan nan nan nan nan nan nan nan nan nan nan nan nan nan nan nan nan nan nan nan nan nan nan nan nan nan nan nan nan nan nan nan nan nan nan nan nan nan nan nan nan nan nan nan nan
Wind_Direction
nan nan nan nan nan nan nan nan nan nan nan nan nan nan nan nan nan nan nan nan nan nan nan nan 221 223 226 233 246 257 261 214 231 246 215 242 249 251 256 260 262 262 262 262 263 263 264 263 263 263 262 263 263 263 264 266 264 261 261 255 249 246 251 257 263 263 265 263 257 260 268 284 290 296 301 306 306 303 303 298 296 292 289 291 295 299
nan nan nan nan nan nan nan nan nan nan nan nan nan nan nan nan nan nan nan nan nan nan nan 213 224 220 224 234 236 253 256 258 241 241 246 248 248 249 254 255 257 258 258 264 267 268 265 264 264 261 260 261 261 260 262 262 260 257 255 251 244 242 246 248 256 265 272 272 274 275 279 282 286 293 301 305 304 303 298 295 291 287 287 290 295 297
nan nan nan nan nan nan nan nan nan nan nan nan nan nan nan nan nan nan nan nan nan nan nan 208 225 222 225 237 243 251 254 251 257 262 261 259 259 254 253 257 257 260 260 262 272 270 268 265 261 259 257 256 256 255 255 257 257 255 254 250 249 247 247 247 250 258 265 269 271 274 272 277 277 287 295 300 297 294 296 295 291 289 288 290 295 299
nan nan nan nan nan nan nan nan nan nan nan nan nan nan nan nan nan nan nan nan nan nan 213 218 227 225 228 229 235 233 244 243 248 251 245 248 254 253 252 253 262 263 263 271 277 276 269 264 260 255 252 252 252 249 249 251 254 255 252 249 247 247 246 247 248 255 262 267 272 272 274 273 277 278 277 280 283 279 278 277 283 283 285 289 294 295
nan nan nan nan nan nan nan nan nan nan nan nan nan nan nan nan nan nan nan nan 196 201 220 219 216 218 230 242 242 235 232 229 226 225 227 235 239 242 244 250 254 259 272 279 279 273 269 263 256 253 249 249 249 248 248 250 252 253 251 246 247 247 248 249 247 249 255 256 255 257 261 261 262 267 262 263 262 262 270 273 272 275 283 286 287 287
nan nan nan nan nan nan nan nan nan nan nan nan nan nan nan nan nan nan nan nan nan 200 191 nan nan 212 224 237 245 246 240 242 233 235 244 241 233 236 246 255 256 259 268 273 268 272 271 267 258 251 245 245 248 247 246 250 253 254 252 251 249 250 249 249 247 248 253 256 256 256 258 257 260 262 260 262 267 266 266 269 278 272 275 281 283 284
nan nan nan nan nan nan nan nan nan nan nan nan nan nan nan nan nan nan nan nan nan nan nan nan nan 216 220 237 240 246 248 250 248 232 248 251 243 236 250 259 265 276 277 266 258 264 267 264 260 250 244 243 247 247 246 252 255 256 258 257 255 254 254 250 250 251 253 254 256 259 263 265 264 265 266 269 269 269 270 274 269 274 277 283 287 288
nan nan nan nan nan nan nan nan nan nan nan nan nan nan nan nan nan nan nan nan nan nan nan nan nan 226 225 230 249 242 248 253 253 243 244 240 240 243 258 262 267 274 280 274 259 254 258 259 263 259 247 248 250 251 251 255 257 257 258 258 255 255 254 252 253 253 254 258 257 259 259 262 261 263 265 262 261 265 268 268 269 274 276 279 282 285
nan nan nan nan nan nan nan nan nan nan nan nan nan nan nan nan nan nan nan nan nan nan nan nan 221 221 224 235 233 241 242 240 249 242 243 244 239 254 268 269 272 274 273 276 265 253 257 263 263 263 257 253 253 252 254 257 261 260 259 260 258 255 256 256 255 256 255 257 258 260 261 261 263 264 264 266 265 263 262 264 266 268 272 273 279 284
nan nan nan nan nan nan nan nan nan nan nan nan nan nan nan nan nan nan nan nan nan nan nan nan 222 nan 223 227 235 231 237 234 236 242 256 267 270 274 279 275 275 271 264 264 267 259 262 266 264 260 262 258 252 256 255 256 258 258 258 258 258 258 260 259 257 258 256 256 257 259 259 261 262 263 265 268 265 265 265 265 265 271 273 276 278 279
nan nan nan nan nan nan nan nan nan nan nan nan nan nan nan nan nan nan nan nan nan nan nan nan nan nan nan 230 237 244 240 257 256 254 262 272 276 278 279 278 276 272 263 265 268 262 264 266 261 258 260 260 256 256 255 256 258 260 259 258 258 258 259 257 257 257 258 257 258 260 262 262 262 262 264 264 262 263 262 264 268 272 277 280 282 286
nan nan nan nan nan nan nan nan nan nan nan nan nan nan nan nan nan nan nan nan nan nan nan nan nan nan nan 230 232 233 235 258 267 273 280 281 282 278 275 273 274 271 267 266 271 270 267 265 259 257 257 258 258 253 253 255 256 257 259 261 259 256 257 257 258 258 256 258 258 259 260 261 263 264 266 266 266 266 267 268 270 274 278 278 285 285
nan nan nan nan nan nan nan nan nan nan nan nan nan nan nan nan nan nan nan nan nan nan nan nan nan nan nan 227 227 245 243 254 252 259 270 274 275 272 266 266 267 270 272 270 272 273 266 262 262 258 256 257 254 251 250 253 256 259 260 260 260 257 256 257 258 259 258 258 259 261 262 264 265 nan nan 267 268 269 270 270 270 270 272 276 nan nan
nan nan nan nan nan nan nan nan nan nan nan nan nan nan nan nan nan nan nan nan nan nan nan nan nan nan 224 nan 217 238 243 242 246 247 249 261 269 266 264 266 266 266 269 270 273 277 272 261 256 255 250 247 250 250 249 254 260 262 261 261 262 260 258 258 258 259 260 261 263 264 nan nan nan nan nan nan nan nan nan nan nan nan nan nan nan nan
nan nan nan nan nan nan nan nan nan nan nan nan nan nan nan nan nan nan nan nan nan nan nan nan nan nan nan nan 221 230 239 241 241 247 254 257 258 258 259 263 265 264 264 267 272 277 277 269 260 254 249 244 244 246 250 257 260 261 261 262 263 262 259 260 260 261 261 262 nan nan nan nan nan nan nan nan nan nan nan nan nan nan nan nan nan nan
nan nan nan nan nan nan nan nan nan nan nan nan nan nan nan nan nan nan nan nan nan nan nan nan nan nan nan nan 224 234 237 239 241 243 251 254 256 257 256 260 263 265 267 268 275 281 280 269 260 257 251 246 245 249 255 258 259 260 261 261 262 263 262 261 261 261 nan nan nan nan nan nan nan nan nan nan nan nan nan nan nan nan nan nan nan nan
nan nan nan nan nan nan nan nan nan nan nan nan nan nan nan nan nan nan nan nan nan nan nan nan nan nan nan nan 227 238 240 239 241 242 248 252 254 253 254 259 264 266 268 272 276 280 278 269 261 257 254 nan nan nan 257 258 258 260 260 nan nan 261 261 nan nan nan nan nan nan nan nan nan nan nan nan nan nan nan nan nan nan nan nan nan nan nan
nan nan nan nan nan nan nan nan nan nan nan nan nan nan nan nan nan nan nan nan nan nan nan nan nan nan nan nan 235 238 243 244 245 246 248 252 254 254 257 261 265 268 269 271 273 271 270 268 263 258 nan nan nan nan 258 nan nan nan nan nan nan nan nan nan nan nan nan nan nan nan nan nan nan nan nan nan nan nan nan nan nan nan nan nan nan nan
nan nan nan nan nan nan nan nan nan nan nan nan nan nan nan nan nan nan nan nan nan nan nan nan nan nan nan nan nan 249 250 254 253 247 249 252 252 255 259 263 264 267 268 270 273 270 268 267 nan nan nan nan nan nan nan nan nan nan nan nan nan nan nan nan nan nan nan nan nan nan nan nan nan nan nan nan nan nan nan nan nan nan nan nan nan nan
nan nan nan nan nan nan nan nan nan nan nan nan nan nan nan nan nan nan nan nan nan nan nan nan nan nan nan nan nan 255 257 261 258 254 250 249 251 256 261 265 267 269 269 271 272 269 265 260 256 257 259 260 nan nan nan nan nan nan nan nan nan nan nan nan nan nan nan nan nan nan nan nan nan nan nan nan nan nan nan nan nan nan nan nan nan nan
nan nan nan nan nan nan nan nan nan nan nan nan nan nan nan nan nan nan nan nan nan nan nan nan nan nan nan nan nan 253 258 257 257 251 250 251 257 261 265 265 265 266 267 268 268 268 266 264 262 260 261 nan nan nan nan nan nan nan nan nan nan nan nan nan nan nan nan nan nan nan nan nan nan nan nan nan nan nan nan nan nan nan nan nan nan nan
nan nan nan nan nan nan nan nan nan nan nan nan nan nan nan nan nan nan nan nan nan nan nan nan nan nan nan nan nan nan 249 250 250 252 251 259 261 260 259 261 263 264 262 262 264 266 267 266 264 263 261 nan nan nan nan nan nan nan nan nan nan nan nan nan nan nan nan nan nan nan nan nan nan nan nan nan nan nan nan nan nan nan nan nan nan nan
nan nan nan nan nan nan nan nan nan nan nan nan nan nan nan nan nan nan nan nan nan nan nan nan nan nan nan nan nan 248 249 251 252 253 256 259 260 258 258 257 255 259 263 264 264 263 264 265 262 259 nan nan nan nan nan nan nan nan nan nan nan nan nan nan nan nan nan nan nan nan nan nan nan nan nan nan nan nan nan nan nan nan nan nan nan nan
nan nan nan nan nan nan nan nan nan nan nan nan nan nan nan nan nan nan nan nan nan nan nan nan nan nan nan nan nan nan 250 nan 251 257 261 261 260 260 260 258 261 262 263 264 263 262 262 263 262 261 nan nan nan nan nan nan nan nan nan nan nan nan nan nan nan nan nan nan nan nan nan nan nan nan nan nan nan nan nan nan nan nan nan nan nan nan
nan nan nan nan nan nan nan nan nan nan nan nan nan nan nan nan nan nan nan nan nan nan nan nan nan nan nan nan nan nan 253 255 258 261 265 263 259 nan 260 260 262 265 266 265 265 267 268 268 267 267 267 nan nan nan nan nan nan nan nan nan nan nan nan nan nan nan nan nan nan nan nan nan nan nan nan nan nan nan nan nan nan nan nan nan nan nan
nan nan nan nan nan nan nan nan nan nan nan nan nan nan nan nan nan nan nan nan nan nan nan nan nan nan 239 247 nan 255 255 257 260 262 262 264 262 260 260 263 265 266 266 267 269 271 271 271 270 269 269 nan nan nan nan nan nan nan nan nan nan nan nan nan nan nan nan nan nan nan nan nan nan nan nan nan nan nan nan nan nan nan nan nan nan nan
nan nan nan nan nan nan nan nan nan nan nan nan nan nan nan nan nan nan nan nan nan nan nan nan nan 239 nan 251 nan 259 262 265 265 264 263 262 261 261 263 264 266 267 269 270 272 273 274 271 269 268 267 nan nan nan nan nan nan nan nan nan nan nan nan nan nan nan nan nan nan nan nan nan nan nan nan nan nan nan nan nan nan nan nan nan nan nan
nan nan nan nan nan nan nan nan nan nan nan nan nan nan nan nan nan nan nan nan nan nan nan nan nan nan nan 248 253 259 263 264 263 262 262 261 262 263 263 266 268 268 269 271 273 274 273 272 269 267 nan nan nan nan nan nan nan nan nan nan nan nan nan nan nan nan nan nan nan nan nan nan nan nan nan nan nan nan nan nan nan nan nan nan nan nan
nan nan nan nan 203 nan nan nan 201 nan nan nan nan nan nan nan nan nan nan nan nan nan nan nan nan nan nan nan 262 264 264 265 265 262 260 260 261 nan nan nan nan 275 275 273 273 273 273 272 270 nan nan nan nan nan nan nan nan nan nan nan nan nan nan nan nan nan nan nan nan nan nan nan nan nan nan nan nan nan nan nan nan nan nan nan nan nan
nan nan nan nan 205 203 nan 202 202 nan nan nan nan nan nan nan nan nan nan nan nan nan nan nan nan nan nan 248 254 258 259 262 262 260 261 nan nan nan 272 274 275 276 276 274 nan nan nan nan nan nan nan nan nan nan nan nan nan nan nan nan nan nan nan nan nan nan nan nan nan nan nan nan nan nan nan nan nan nan nan nan nan nan nan nan nan nan
nan nan nan 202 nan nan 199 203 208 nan nan nan nan nan nan nan nan nan nan nan nan nan nan nan nan nan nan 240 245 250 256 260 263 nan 269 270 nan nan 276 274 274 nan nan nan nan nan nan nan nan nan nan nan nan nan nan nan nan nan nan nan nan nan nan nan nan nan nan nan nan nan nan nan nan nan nan nan nan nan nan nan nan nan nan nan nan nan
nan 195 199 203 nan 202 nan nan nan nan nan nan nan nan nan nan nan nan nan nan nan nan nan nan nan nan nan 244 247 252 258 264 268 269 270 271 275 277 nan nan nan nan nan nan nan nan nan nan nan nan nan nan nan nan nan nan nan nan nan nan nan nan nan nan nan nan nan nan nan nan nan nan nan nan nan nan nan nan nan nan nan nan nan nan nan nan
nan 204 203 nan 212 206 nan nan nan nan nan nan nan nan nan nan nan nan nan nan nan nan nan nan nan nan nan 253 257 258 262 263 266 269 270 272 275 276 nan nan nan nan nan nan nan nan nan nan nan nan nan nan nan nan nan nan nan nan nan nan nan nan nan nan nan nan nan nan nan nan nan nan nan nan nan nan nan nan nan nan nan nan nan nan nan nan
nan 213 206 nan 216 211 210 nan nan nan nan nan 210 212 nan nan nan nan nan nan nan nan nan nan nan nan nan nan 264 268 271 271 269 267 273 277 273 nan 271 nan nan nan nan nan nan nan nan nan nan nan nan nan nan nan nan nan nan nan nan nan nan nan nan nan nan nan nan nan nan nan nan nan nan nan nan nan nan nan nan nan nan nan nan nan nan nan
nan nan nan nan 219 217 214 217 nan nan nan nan 210 209 nan nan nan nan nan nan nan nan nan nan nan nan nan nan 258 257 256 257 259 267 266 264 269 nan nan nan nan nan nan nan nan nan nan nan nan nan nan nan nan nan nan nan nan nan nan nan nan nan nan nan nan nan nan nan nan nan nan nan nan nan nan nan nan nan nan nan nan nan nan nan nan nan
nan 211 211 212 217 217 218 221 nan nan nan 217 211 nan 223 230 232 nan nan nan nan nan nan nan nan nan nan nan 257 257 257 255 250 246 255 nan nan 270 273 nan nan nan nan nan nan nan nan nan nan nan nan nan nan nan nan nan nan nan nan nan nan nan nan nan nan nan nan nan nan nan nan nan nan nan nan nan nan nan nan nan nan nan nan nan nan nan
215 214 216 216 215 226 225 222 nan 219 nan nan 216 nan nan nan nan nan nan nan nan nan nan nan nan nan nan nan nan 260 260 255 248 242 247 260 262 nan nan nan nan nan nan nan nan nan nan nan nan nan nan nan nan nan nan nan nan nan nan nan nan nan nan nan nan nan nan nan nan nan nan nan nan nan nan nan nan nan nan nan nan nan nan nan nan nan
199 216 208 224 216 229 232 226 nan nan nan nan nan 212 nan nan nan nan nan nan nan nan nan nan nan nan nan nan nan 263 262 259 nan 254 258 265 nan 269 nan 275 277 nan nan nan nan nan nan nan nan nan nan nan nan nan nan nan nan nan nan nan nan nan nan nan nan nan nan nan nan nan nan nan nan nan nan nan nan nan nan nan nan nan nan nan nan nan
205 nan nan 223 226 nan 227 nan nan nan nan nan 227 226 nan nan nan nan nan nan nan nan nan nan nan nan nan nan 267 nan 264 267 266 263 268 273 274 nan nan 278 278 nan nan nan nan nan nan nan nan nan nan nan nan nan nan nan nan nan nan nan nan nan nan nan nan nan nan nan nan nan nan nan nan nan nan nan nan nan nan nan nan nan nan nan nan nan
nan nan nan nan nan nan 235 nan nan nan nan nan 229 232 236 nan nan nan nan nan nan nan nan nan nan nan nan nan nan nan 275 275 276 271 273 275 nan nan 276 277 nan nan nan nan nan nan nan nan nan nan nan nan nan nan nan nan nan nan nan nan nan nan nan nan nan nan nan nan nan nan nan nan nan nan nan nan nan nan nan nan nan nan nan nan nan nan
nan nan nan nan nan nan nan nan nan nan nan nan 232 236 nan nan nan nan nan nan nan nan nan nan nan nan nan nan nan 268 nan 245 nan nan nan nan nan nan 271 nan nan nan nan nan nan nan nan nan nan nan nan nan nan nan nan nan nan nan nan nan nan nan nan nan nan nan nan nan nan nan nan nan nan nan nan nan nan nan nan nan nan nan nan nan nan nan
nan nan nan nan nan nan nan nan nan nan nan nan nan nan nan nan nan nan nan nan nan nan nan nan nan nan nan nan nan nan nan nan nan nan nan nan nan nan nan nan nan nan nan nan nan nan nan nan nan nan nan nan nan nan nan nan nan nan nan nan nan nan nan nan nan nan nan nan nan nan nan nan nan nan nan nan nan nan nan nan nan nan nan nan nan nan
nan nan nan nan nan nan nan nan nan nan nan nan nan nan nan nan nan nan nan nan nan nan nan nan nan nan nan nan nan nan nan nan nan nan nan nan nan nan nan nan nan nan nan nan nan nan nan nan nan nan nan nan nan nan nan nan nan nan nan nan nan nan nan nan nan nan nan nan nan nan nan nan nan nan nan nan nan nan nan nan nan nan nan nan nan nan
nan nan nan nan nan nan nan nan nan nan nan nan nan nan nan nan nan nan nan nan nan nan nan nan nan nan nan nan nan nan nan nan nan nan nan nan nan nan nan nan nan nan nan nan nan nan nan nan nan nan nan nan nan nan nan nan nan nan nan nan nan nan nan nan nan nan nan nan nan nan nan nan nan nan nan nan nan nan nan nan nan nan nan nan nan nan
nan nan nan nan nan nan nan nan nan nan nan nan nan nan nan nan nan nan nan nan nan nan nan nan nan nan nan nan nan nan nan nan nan nan nan nan nan nan nan nan nan nan nan nan nan nan nan nan nan nan nan nan nan nan nan nan nan nan nan nan nan nan nan nan nan nan nan nan nan nan nan nan nan nan nan nan nan nan nan nan nan nan nan nan nan nan
nan nan nan nan nan nan nan nan nan nan nan nan nan nan nan nan nan nan nan nan nan nan nan nan nan nan nan nan nan nan nan nan nan nan nan nan nan nan nan nan nan nan nan nan nan nan nan nan nan nan nan nan nan nan nan nan nan nan nan nan nan nan nan nan nan nan nan nan nan nan nan nan nan nan nan nan nan nan nan nan nan nan nan nan nan nan
nan nan nan nan nan nan nan nan nan nan nan nan nan nan nan nan nan nan nan nan nan nan nan nan nan nan nan nan nan nan nan nan nan nan nan nan nan nan nan nan nan nan nan nan nan nan nan nan nan nan nan nan nan nan nan nan nan nan nan nan nan nan nan nan nan nan nan nan nan nan nan nan nan nan nan nan nan nan nan nan nan nan nan nan nan nan
nan nan nan nan nan nan nan nan nan nan nan nan nan nan nan nan nan nan nan nan nan nan nan nan nan nan nan nan nan nan nan nan nan nan nan nan nan nan nan nan nan nan nan nan nan nan nan nan nan nan nan nan nan nan nan nan nan nan nan nan nan nan nan nan nan nan nan nan nan nan nan nan nan nan nan nan nan nan nan nan nan nan nan nan nan nan
nan nan nan nan nan nan nan nan nan nan nan nan nan nan nan nan nan nan nan nan nan nan nan nan nan nan nan nan nan nan nan nan nan nan nan nan nan nan nan nan nan nan nan nan nan nan nan nan nan nan nan nan nan nan nan nan nan nan nan nan nan nan nan nan nan nan nan nan nan nan nan nan nan nan nan nan nan nan nan nan nan nan nan nan nan nan
nan nan nan nan nan nan nan nan nan nan nan nan nan nan nan nan nan nan nan nan nan nan nan nan nan nan nan nan nan nan nan nan nan nan nan nan nan nan nan nan nan nan nan nan nan nan nan nan nan nan nan nan nan nan nan nan nan nan nan nan nan nan nan nan nan nan nan nan nan nan nan nan nan nan nan nan nan nan nan nan nan nan nan nan nan nan
nan nan nan nan nan nan nan nan nan nan nan nan nan nan nan nan nan nan nan nan nan nan nan nan nan nan nan nan nan nan nan nan nan nan nan nan nan nan nan nan nan nan nan nan nan nan nan nan nan nan nan nan nan nan nan nan nan nan nan nan nan nan nan nan nan nan nan nan nan nan nan nan nan nan nan nan nan nan nan nan nan nan nan nan nan nan